Location: F?ge?el
(45.8833°N, 22.5833°E)
Time: 07:21:35
(UTC+00:00)

Cosmos 1400 Rocket - Pass Details

Date: 17 November 2025
Orbit: 476 x 513 km, 81.1° (Epoch: 13 December)

Event Time Altitude Azimuth Distance (km) Brightness Sun altitude
Rises 15:50:32 0° 150° (SSE) 2,620 6.1 -9.6°
Reaches altitude 10° 15:53:16 10° 129° (SE) 1,735 5.0 -10.0°
Maximum altitude 15:55:42 17° 89° (E) 1,374 4.2 -10.4°
Enters shadow 15:56:38 15° 71° (ENE) 1,433 4.3 -10.6°
